GW4460 Weather Reports


time (UTC)temp
C
wind
direction
speed
KPH
gust
KPH
rain 1hr
cm
rain 24hr
cm
rain mn
cm
humidity
%
barometer
mb
20260506015327 11 85 9.7 22.5 0.00 0.00 0.00 73 1010.9
20260506014824 11 67 14.5 17.7 0.00 0.00 0.00 73 1010.5
20260506014320 11 82 12.9 20.9 0.00 0.00 0.00 73 1010.6
20260506013817 11 99 9.7 14.5 0.00 0.00 0.00 73 1010.4
20260506013315 11 52 6.4 12.9 0.00 0.00 0.00 73 1010.5
20260506012811 11 58 4.8 14.5 0.00 0.00 0.00 73 1010.4
20260506012308 11 57 3.2 14.5 0.00 0.00 0.00 73 1010.3
20260506011129 12 87 9.7 17.7 0.00 0.00 0.00 72 1010.0
20260506010628 12 87 9.7 17.7 0.00 0.00 0.00 72 1010.0
20260506010125 12 46 8.0 16.1 0.00 0.00 0.00 72 1009.7
20260506005622 12 96 8.0 17.7 0.00 0.00 0.00 71 1009.4
20260506005118 12 66 6.4 12.9 0.00 0.00 0.00 71 1009.6
20260506004615 12 88 9.7 12.9 0.00 0.00 0.00 71 1009.5
20260506004112 12 76 4.8 16.1 0.00 0.00 0.00 71 1009.5
20260506003608 12 92 8.0 14.5 0.00 0.00 0.00 70 1009.3
20260506003104 12 80 6.4 16.1 0.00 0.00 0.00 71 1009.8
20260506002600 12 96 8.0 11.3 0.00 0.00 0.00 70 1009.7
20260506002056 12 51 6.4 19.3 0.00 0.00 0.00 70 1009.5
20260506001553 12 40 14.5 22.5 0.00 0.00 0.00 70 1009.7
20260506001050 12 79 9.7 14.5 0.00 0.00 0.00 70 1009.8
20260506000547 12 83 4.8 17.7 0.00 0.00 0.00 70 1010.0
20260506000045 12 83 9.7 11.3 0.00 0.00 0.00 70 1009.9
20260505235543 12 106 3.2 19.3 0.00 0.00 0.00 69 1009.6
20260505235039 13 114 4.8 9.7 0.00 0.00 0.00 71 1009.5
20260505234536 12 77 4.8 12.9 0.00 0.00 0.00 71 1009.4
20260505234033 13 68 6.4 9.7 0.00 0.00 0.00 71 1009.4
20260505233530 13 85 9.7 11.3 0.00 0.00 0.00 71 1009.6
20260505233028 13 82 6.4 11.3 0.00 0.00 0.00 71 1009.4
20260505232526 13 92 3.2 14.5 0.00 0.00 0.00 71 1009.4
20260505232023 13 83 3.2 9.7 0.00 0.00 0.00 71 1009.4
20260505231520 13 89 6.4 17.7 0.00 0.00 0.00 71 1009.4
20260505231019 13 66 3.2 11.3 0.00 0.00 0.00 70 1009.6
20260505230515 13 105 6.4 9.7 0.00 0.00 0.00 71 1009.4
20260505230012 13 93 8.0 9.7 0.00 0.00 0.00 71 1009.3
20260505225509 13 73 8.0 17.7 0.00 0.00 0.00 71 1009.4
20260505225005 13 73 8.0 12.9 0.00 0.00 0.00 71 1009.5
20260505224502 13 273 3.2 14.5 0.00 0.00 0.00 71 1009.5
20260505223959 13 205 1.6 11.3 0.00 0.00 0.00 71 1009.8
20260505223456 13 64 12.9 16.1 0.00 0.00 0.00 70 1009.7
20260505222952 13 107 3.2 14.5 0.00 0.00 0.00 71 1009.5
20260505222448 13 66 9.7 12.9 0.00 0.00 0.00 70 1009.4
20260505221944 13 84 8.0 14.5 0.00 0.00 0.00 71 1009.5
20260505221442 13 109 4.8 14.5 0.00 0.00 0.00 72 1009.4
20260505220939 13 92 9.7 16.1 0.00 0.00 0.00 71 1009.4
20260505220436 14 113 8.0 9.7 0.00 0.00 0.00 71 1009.7
20260505215933 14 114 6.4 12.9 0.00 0.00 0.00 70 1009.6
20260505215431 14 83 4.8 11.3 0.00 0.00 0.00 71 1009.4
20260505214929 14 35 3.2 11.3 0.00 0.00 0.00 70 1009.2
20260505214426 15 108 8.0 11.3 0.00 0.00 0.00 70 1009.2
20260505213923 15 92 6.4 6.4 0.00 0.00 0.00 70 1009.2
20260505213421 15 77 3.2 16.1 0.00 0.00 0.00 70 1009.2
20260505212917 15 122 3.2 8.0 0.00 0.00 0.00 68 1009.3
20260505212414 15 99 6.4 12.9 0.00 0.00 0.00 68 1009.0
20260505211910 15 262 1.6 6.4 0.00 0.00 0.00 68 1009.2
20260505211408 15 231 3.2 9.7 0.00 0.00 0.00 67 1008.7
20260505210904 16 100 3.2 9.7 0.00 0.00 0.00 67 1008.5
20260505210402 16 99 3.2 12.9 0.00 0.00 0.00 67 1008.7
20260505205858 15 92 3.2 9.7 0.00 0.00 0.00 68 1008.6
20260505205357 16 111 11.3 16.1 0.00 0.00 0.00 67 1008.6
20260505204853 15 77 6.4 19.3 0.00 0.00 0.00 69 1008.6
20260505204351 15 68 4.8 19.3 0.00 0.00 0.00 68 1008.5
20260505203848 16 30 8.0 17.7 0.00 0.00 0.00 65 1008.4
20260505203344 16 92 8.0 9.7 0.00 0.00 0.00 66 1008.5
20260505202841 16 101 8.0 9.7 0.00 0.00 0.00 66 1008.2
20260505202337 17 53 3.2 9.7 0.00 0.00 0.00 65 1008.4
20260505201834 17 79 6.4 12.9 0.00 0.00 0.00 65 1008.7
20260505201331 17 261 3.2 16.1 0.00 0.00 0.00 64 1008.7
20260505200830 17 79 9.7 17.7 0.00 0.00 0.00 64 1008.5
20260505200326 16 94 4.8 17.7 0.00 0.00 0.00 68 1008.5
20260505195821 17 78 9.7 20.9 0.00 0.00 0.00 65 1008.2
20260505195319 17 81 11.3 14.5 0.00 0.00 0.00 66 1008.2
20260505194816 17 27 3.2 14.5 0.00 0.00 0.00 65 1008.0
20260505194313 18 64 11.3 17.7 0.00 0.00 0.00 63 1007.8
20260505193808 17 99 3.2 6.4 0.00 0.00 0.00 65 1007.8
20260505193307 18 117 4.8 6.4 0.00 0.00 0.00 62 1007.8
20260505192804 18 274 3.2 12.9 0.00 0.00 0.00 61 1007.8
20260505192305 18 221 1.6 8.0 0.00 0.00 0.00 61 1007.6
20260505191800 18 286 3.2 11.3 0.00 0.00 0.00 63 1007.8
20260505191258 19 57 6.4 8.0 0.00 0.00 0.00 60 1007.5
20260505190754 18 213 6.4 8.0 0.00 0.00 0.00 61 1007.6
20260505190249 18 172 3.2 6.4 0.00 0.00 0.00 63 1007.7
20260505185746 18 188 0.0 8.0 0.00 0.00 0.00 64 1007.9
20260505185242 17 62 6.4 9.7 0.00 0.00 0.00 65 1008.1
20260505184738 17 140 3.2 8.0 0.00 0.00 0.00 66 1008.1
20260505184236 17 74 1.6 8.0 0.00 0.00 0.00 65 1008.1
20260505183732 18 91 6.4 17.7 0.00 0.00 0.00 65 1008.0
20260505183230 18 86 6.4 8.0 0.00 0.00 0.00 64 1008.1
20260505182726 18 63 4.8 8.0 0.00 0.00 0.00 64 1008.1
20260505182223 18 107 6.4 12.9 0.00 0.00 0.00 65 1007.9
20260505181719 18 102 3.2 12.9 0.00 0.00 0.00 65 1007.3
20260505181217 18 72 9.7 14.5 0.00 0.00 0.00 65 1006.9
20260505180714 18 287 3.2 6.4 0.00 0.00 0.00 65 1007.2
20260505180210 18 91 4.8 9.7 0.00 0.00 0.00 65 1007.3
20260505175706 18 294 3.2 6.4 0.00 0.00 0.00 66 1007.3
20260505175203 18 302 3.2 6.4 0.00 0.00 0.00 65 1007.5
20260505174659 18 12 0.0 8.0 0.00 0.00 0.00 66 1007.7
20260505174155 18 117 3.2 16.1 0.00 0.00 0.00 65 1007.2
20260505173652 18 318 3.2 12.9 0.00 0.00 0.00 66 1006.9
20260505173149 18 85 1.6 14.5 0.00 0.00 0.00 66 1006.6
20260505172647 18 203 4.8 19.3 0.00 0.00 0.00 66 1006.4
20260505172143 18 207 3.2 14.5 0.00 0.00 0.00 67 1006.2
20260505171643 18 294 4.8 16.1 0.00 0.00 0.00 67 1006.0
20260505171141 18 267 8.0 8.0 0.00 0.00 0.00 67 1006.0
20260505170638 18 185 4.8 12.9 0.00 0.00 0.00 68 1005.6
20260505170134 18 50 8.0 25.7 0.00 0.00 0.00 67 1005.4
20260505165634 19 229 4.8 16.1 0.00 0.00 0.00 66 1006.0
20260505165131 18 118 3.2 9.7 0.00 0.00 0.00 67 1005.7
20260505164626 19 95 3.2 16.1 0.00 0.00 0.00 66 1005.5
20260505164124 20 122 8.0 17.7 0.00 0.00 0.00 66 1005.5
20260505163622 20 141 4.8 9.7 0.00 0.00 0.00 64 1004.9
20260505163120 20 98 8.0 12.9 0.00 0.00 0.00 62 1005.2
20260505162617 20 134 4.8 6.4 0.00 0.00 0.00 64 1005.0
20260505162115 20 88 3.2 12.9 0.00 0.00 0.00 65 1004.9
20260505161612 20 259 3.2 11.3 0.00 0.00 0.00 64 1004.9
20260505161109 20 306 1.6 11.3 0.00 0.00 0.00 65 1004.8
20260505160606 20 337 3.2 9.7 0.00 0.00 0.00 66 1004.6
20260505160104 20 268 3.2 11.3 0.00 0.00 0.00 67 1004.5
20260505153043 23 248 4.8 8.0 0.00 0.00 0.00 65 1003.9
20260505152540 23 325 3.2 8.0 0.00 0.00 0.00 64 1004.0
20260505152036 23 85 3.2 6.4 0.00 0.00 0.00 67 1004.2
20260505151531 23 298 3.2 6.4 0.00 0.00 0.00 63 1003.7
20260505151028 23 321 4.8 4.8 0.00 0.00 0.00 59 1003.5
20260505150525 23 290 1.6 6.4 0.00 0.00 0.00 53 1003.3
20260505140450 21 221 3.2 3.2 0.00 0.00 0.00 73 1002.2
20260505124903 19 142 0.0 3.2 0.00 0.00 0.00 79 1001.7
20260505124400 19 215 0.0 1.6 0.00 0.00 0.00 79 1001.7
20260505123856 19 220 0.0 3.2 0.00 0.00 0.00 79 1001.4
20260505123353 19 186 0.0 1.6 0.00 0.00 0.00 80 1001.6
20260505122849 19 148 0.0 1.6 0.00 0.00 0.00 80 1001.6
20260505122346 18 230 0.0 0.0 0.00 0.00 0.00 79 1001.5
20260505121843 18 135 0.0 0.0 0.00 0.00 0.00 79 1001.4
20260505121340 18 142 0.0 1.6 0.00 0.00 0.00 79 1001.4
20260505120836 19 140 0.0 1.6 0.00 0.00 0.00 78 1001.3
20260505120332 19 129 0.0 0.0 0.00 0.00 0.00 77 1001.5
20260505115831 20 217 0.0 1.6 0.00 0.00 0.00 77 1001.2
20260505115328 20 228 1.6 3.2 0.00 0.00 0.00 76 1001.1
20260505114826 20 212 1.6 4.8 0.00 0.00 0.00 76 1001.2
20260505114322 20 240 3.2 3.2 0.00 0.00 0.00 76 1001.2
20260505113819 20 218 0.0 3.2 0.00 0.00 0.00 76 1000.9
20260505113315 20 208 0.0 3.2 0.00 0.00 0.00 77 1001.3
20260505112811 20 199 0.0 3.2 0.00 0.00 0.00 77 1001.0
20260505112309 20 196 1.6 3.2 0.00 0.00 0.00 77 1000.9
20260505111804 20 202 0.0 1.6 0.00 0.00 0.00 77 1000.7
20260505111300 20 209 0.0 1.6 0.00 0.00 0.00 77 1000.8
20260505110756 20 209 0.0 3.2 0.00 0.00 0.00 77 1000.6
20260505110254 20 198 1.6 3.2 0.00 0.00 0.00 77 1000.7
20260505101728 20 189 0.0 1.6 0.00 0.00 0.00 78 1000.6
20260505101223 20 160 0.0 3.2 0.00 0.00 0.00 79 1000.4
20260505100720 20 190 1.6 3.2 0.00 0.00 0.00 79 1000.5
20260505100217 20 174 0.0 1.6 0.00 0.00 0.00 79 1000.7
20260505095712 20 182 0.0 1.6 0.00 0.00 0.00 79 1000.8
20260505095211 20 157 0.0 0.0 0.00 0.00 0.00 79 1000.6
20260505094706 20 196 0.0 1.6 0.00 0.00 0.00 79 1000.4
20260505094202 20 173 0.0 1.6 0.00 0.00 0.00 78 1000.6
20260505093659 20 181 0.0 1.6 0.00 0.00 0.00 78 1000.5
20260505093157 20 149 3.2 3.2 0.00 0.00 0.00 78 1000.6
20260505092653 20 178 1.6 1.6 0.00 0.00 0.00 78 1000.7
20260505092152 20 216 1.6 1.6 0.00 0.00 0.00 78 1000.7
20260505091649 20 174 0.0 3.2 0.00 0.00 0.00 78 1000.7
20260505091147 20 154 0.0 3.2 0.00 0.00 0.00 78 1000.6
20260505090644 20 180 0.0 3.2 0.00 0.00 0.00 78 1000.6
20260505090142 20 209 1.6 1.6 0.00 0.00 0.00 78 1000.9
20260505085639 20 209 0.0 3.2 0.00 0.00 0.00 77 1000.7
20260505085137 20 214 1.6 1.6 0.00 0.00 0.00 77 1001.0
20260505084635 20 156 0.0 1.6 0.00 0.00 0.00 77 1000.8
20260505084133 20 217 0.0 1.6 0.00 0.00 0.00 77 1000.7
20260505083630 21 178 0.0 3.2 0.00 0.00 0.00 77 1001.0
20260505083126 21 216 0.0 3.2 0.00 0.00 0.00 77 1000.8
20260505082622 21 228 1.6 3.2 0.00 0.00 0.00 77 1000.8
20260505082120 21 224 0.0 3.2 0.00 0.00 0.00 77 1000.8
20260505081615 21 188 0.0 3.2 0.00 0.00 0.00 77 1000.9
20260505081114 21 184 1.6 3.2 0.00 0.00 0.00 77 1000.8
20260505080609 21 216 1.6 3.2 0.00 0.00 0.00 77 1000.8
20260505080106 21 218 0.0 1.6 0.00 0.00 0.00 77 1000.6
20260505075602 21 170 0.0 3.2 0.00 0.00 0.00 77 1000.9
20260505075059 21 229 0.0 3.2 0.00 0.00 0.00 77 1001.0
20260505074556 21 205 1.6 3.2 0.00 0.00 0.00 77 1000.9
20260505074053 21 211 3.2 3.2 0.00 0.00 0.00 77 1001.1
20260505073550 21 220 0.0 8.0 0.00 0.00 0.00 77 1001.4
20260505073049 21 157 0.0 6.4 0.00 0.00 0.00 77 1001.2
20260505072549 21 167 0.0 4.8 0.00 0.00 0.00 77 1001.3
20260505072046 21 87 3.2 3.2 0.00 0.00 0.00 76 1001.5
20260505071541 21 124 0.0 4.8 0.00 0.00 0.00 76 1001.5
20260505071040 21 216 1.6 3.2 0.00 0.00 0.00 76 1001.6
20260505070537 21 200 1.6 6.4 0.00 0.00 0.00 76 1001.4
20260505070033 21 212 0.0 3.2 0.00 0.00 0.00 75 1001.6
20260505065529 21 13 0.0 4.8 0.00 0.00 0.00 75 1001.4
20260505065026 21 155 4.8 6.4 0.00 0.00 0.00 75 1001.9
20260505064522 21 187 0.0 3.2 0.00 0.00 0.00 75 1002.0
20260505064021 22 147 0.0 4.8 0.00 0.00 0.00 75 1002.0
20260505063518 22 175 0.0 4.8 0.00 0.00 0.00 74 1002.1
20260505063013 22 114 1.6 3.2 0.00 0.00 0.00 74 1002.0
20260505062511 22 141 4.8 4.8 0.00 0.00 0.00 74 1001.9
20260505062008 22 61 0.0 3.2 0.00 0.00 0.00 74 1002.1
20260505061506 22 170 0.0 4.8 0.00 0.00 0.00 74 1001.9
20260505061003 22 123 3.2 8.0 0.00 0.00 0.00 74 1001.8
20260505060500 22 194 1.6 4.8 0.00 0.00 0.00 74 1002.0
20260505055956 22 108 1.6 4.8 0.00 0.00 0.00 73 1002.2
20260505055452 22 147 6.4 8.0 0.00 0.00 0.00 73 1002.0
20260505054949 22 95 0.0 6.4 0.00 0.00 0.00 73 1002.2
20260505054447 22 57 1.6 4.8 0.00 0.00 0.00 73 1002.1
20260505053944 22 38 0.0 3.2 0.00 0.00 0.00 73 1002.0
20260505053441 22 34 3.2 3.2 0.00 0.00 0.00 72 1001.9
20260505052938 22 196 1.6 9.7 0.00 0.00 0.00 72 1001.9
20260505052435 22 182 3.2 6.4 0.00 0.00 0.00 72 1002.0
20260505051932 22 230 1.6 11.3 0.00 0.00 0.00 72 1002.0
20260505051429 22 108 3.2 6.4 0.00 0.00 0.00 71 1002.0
20260505050927 23 159 6.4 12.9 0.00 0.00 0.00 71 1002.2
20260505050425 23 151 3.2 9.7 0.00 0.00 0.00 71 1002.0
20260505041353 23 153 3.2 6.4 0.00 0.00 0.00 68 1002.5
20260505040850 23 202 1.6 6.4 0.00 0.00 0.00 68 1002.5
20260505040347 23 123 1.6 8.0 0.00 0.00 0.00 68 1002.4
20260505035844 23 166 4.8 4.8 0.00 0.00 0.00 68 1002.4
20260505035340 23 186 3.2 4.8 0.00 0.00 0.00 67 1002.3
20260505034837 23 184 4.8 8.0 0.00 0.00 0.00 67 1002.5
20260505034334 23 242 0.0 8.0 0.00 0.00 0.00 67 1002.5
20260505033831 24 192 4.8 6.4 0.00 0.00 0.00 67 1002.4
20260505033328 24 209 3.2 4.8 0.00 0.00 0.00 67 1002.5
20260505032826 24 197 3.2 4.8 0.00 0.00 0.00 66 1002.4
20260505032322 24 164 6.4 6.4 0.00 0.00 0.00 66 1002.6
20260505031819 24 193 0.0 4.8 0.00 0.00 0.00 66 1002.5
20260505031316 24 165 3.2 6.4 0.00 0.00 0.00 66 1002.4
20260505030813 24 178 3.2 8.0 0.00 0.00 0.00 66 1002.3
20260505030310 24 206 6.4 6.4 0.00 0.00 0.00 65 1002.3
20260505025804 25 182 1.6 4.8 0.00 0.00 0.00 64 1002.3
20260505025304 25 172 3.2 4.8 0.00 0.00 0.00 64 1002.2
20260505024801 25 186 3.2 9.7 0.00 0.00 0.00 64 1002.1
20260505024258 25 175 3.2 8.0 0.00 0.00 0.00 63 1001.9
20260505023755 25 169 4.8 6.4 0.00 0.00 0.00 63 1001.9
20260505023252 25 224 4.8 9.7 0.00 0.00 0.00 62 1001.7
20260505022749 25 222 3.2 12.9 0.00 0.00 0.00 62 1001.7
20260505022246 25 85 1.6 11.3 0.00 0.00 0.00 62 1001.7
20260505021743 25 248 4.8 6.4 0.00 0.00 0.00 61 1001.7
20260505021240 25 217 0.0 11.3 0.00 0.00 0.00 61 1001.6
20260505020735 25 152 11.3 12.9 0.00 0.00 0.00 61 1001.7
20260505020231 25 213 3.2 11.3 0.00 0.00 0.00 60 1001.4
20260505015728 25 192 6.4 9.7 0.00 0.00 0.00 60 1001.3